CDG2305 ZUCK-ZSNJ

Flight info

Callsign CDG2305
Flight time 1h 45m
Altitude 24600
Route OLNER B213 WHA R343 HFE
Aircraft B738/M-SDE2E3FGHIRWXY/LB1

Departure

Time 2026-04-24 14:43
Airport Chongqing Jiangbei International Airport (ZUCK)

Arrival

Time 2026-04-24 16:28
Airport Nanjing Lukou International Airport (ZSNJ)
Time Latitude Longitude Altitude Speed Heading
2026-04-24 14:13 29.71288 106.64915 1371 ft 0 kts 120°
2026-04-24 14:31 29.71292 106.64907 1370 ft 2 kts 120°
2026-04-24 14:31 29.71299 106.64893 1371 ft 2 kts 120°
2026-04-24 14:32 29.71307 106.64877 1371 ft 2 kts 120°
2026-04-24 14:32 29.71314 106.64863 1370 ft 2 kts 120°
2026-04-24 14:32 29.71322 106.64848 1370 ft 1 kts 120°
2026-04-24 14:32 29.71327 106.64838 1370 ft 2 kts 111°
2026-04-24 14:33 29.71328 106.64821 1370 ft 2 kts 81°
2026-04-24 14:33 29.71323 106.64805 1370 ft 2 kts 54°
2026-04-24 14:33 29.71317 106.64796 1370 ft 0 kts 37°
2026-04-24 14:33 29.71311 106.64792 1370 ft 0 kts 34°
2026-04-24 14:35 29.71314 106.64794 1370 ft 2 kts 34°
2026-04-24 14:35 29.71345 106.64819 1370 ft 8 kts 33°
2026-04-24 14:36 29.71415 106.64855 1370 ft 11 kts 20°
2026-04-24 14:36 29.71491 106.64870 1371 ft 11 kts
2026-04-24 14:36 29.71582 106.64872 1371 ft 13 kts 356°
2026-04-24 14:36 29.71658 106.64857 1371 ft 9 kts 319°
2026-04-24 14:37 29.71683 106.64788 1371 ft 8 kts 287°
2026-04-24 14:37 29.71703 106.64726 1371 ft 7 kts 310°
2026-04-24 14:37 29.71754 106.64716 1371 ft 7 kts 13°
2026-04-24 14:37 29.71815 106.64736 1371 ft 11 kts 17°
2026-04-24 14:38 29.71902 106.64766 1371 ft 14 kts 17°
2026-04-24 14:38 29.72012 106.64804 1371 ft 18 kts 17°
2026-04-24 14:38 29.72147 106.64851 1371 ft 22 kts 17°
2026-04-24 14:38 29.72306 106.64905 1371 ft 24 kts 17°
2026-04-24 14:39 29.72465 106.64960 1371 ft 23 kts 17°
2026-04-24 14:39 29.72618 106.65013 1371 ft 22 kts 17°
2026-04-24 14:39 29.72765 106.65064 1371 ft 21 kts 17°
2026-04-24 14:39 29.72906 106.65112 1372 ft 20 kts 16°
2026-04-24 14:40 29.73043 106.65160 1372 ft 19 kts 17°
2026-04-24 14:40 29.73172 106.65204 1372 ft 19 kts 17°
2026-04-24 14:40 29.73299 106.65248 1372 ft 18 kts 17°
2026-04-24 14:40 29.73419 106.65290 1372 ft 17 kts 17°
2026-04-24 14:41 29.73495 106.65314 1372 ft 8 kts
2026-04-24 14:41 29.73535 106.65272 1372 ft 8 kts 287°
2026-04-24 14:41 29.73550 106.65212 1372 ft 7 kts 287°
2026-04-24 14:41 29.73563 106.65150 1372 ft 8 kts 260°
2026-04-24 14:42 29.73521 106.65121 1372 ft 1 kts 197°
2026-04-24 14:42 29.73495 106.65112 1372 ft 19 kts 197°
2026-04-24 14:42 29.73103 106.64977 1372 ft 94 kts 197°
2026-04-24 14:43 29.72262 106.64685 1371 ft 155 kts 197°
2026-04-24 14:43 29.71138 106.64295 1769 ft 173 kts 199°
2026-04-24 14:43 29.69996 106.63891 2499 ft 175 kts 197°
2026-04-24 14:43 29.68828 106.63492 3116 ft 177 kts 195°
2026-04-24 14:44 29.67639 106.63090 3573 ft 178 kts 195°
2026-04-24 14:44 29.66431 106.62677 3969 ft 182 kts 196°
2026-04-24 14:44 29.65206 106.62255 4373 ft 185 kts 196°
2026-04-24 14:44 29.63967 106.61828 4792 ft 192 kts 196°
2026-04-24 14:45 29.62638 106.61372 5143 ft 204 kts 196°
2026-04-24 14:45 29.61231 106.60880 5454 ft 221 kts 198°
2026-04-24 14:45 29.59816 106.60049 5814 ft 236 kts 220°
2026-04-24 14:45 29.58799 106.58481 6105 ft 255 kts 250°
2026-04-24 14:46 29.58476 106.56469 6553 ft 266 kts 271°
2026-04-24 14:46 29.58748 106.54319 7028 ft 276 kts 287°
2026-04-24 14:46 29.59307 106.52219 7664 ft 281 kts 289°
2026-04-24 14:46 29.59929 106.50063 8432 ft 283 kts 290°
2026-04-24 14:47 29.60530 106.47922 9124 ft 287 kts 289°
2026-04-24 14:47 29.61125 106.45718 9872 ft 290 kts 289°
2026-04-24 14:47 29.61704 106.43523 10557 ft 296 kts 289°
2026-04-24 14:47 29.62312 106.41203 11027 ft 309 kts 289°
2026-04-24 14:48 29.62956 106.38744 11446 ft 325 kts 289°
2026-04-24 14:48 29.63624 106.36196 11909 ft 339 kts 289°
2026-04-24 14:48 29.64391 106.33599 12298 ft 353 kts 294°
2026-04-24 14:48 29.65593 106.31106 12779 ft 361 kts 309°
2026-04-24 14:49 29.67393 106.29115 13501 ft 363 kts 324°
2026-04-24 14:49 29.69596 106.27715 14335 ft 363 kts 336°
2026-04-24 14:49 29.71955 106.26742 15287 ft 361 kts 344°
2026-04-24 14:49 29.74429 106.26408 16151 ft 364 kts 359°
2026-04-24 14:50 29.76947 106.26894 16949 ft 369 kts 11°
2026-04-24 14:50 29.79422 106.27715 17747 ft 370 kts 12°
2026-04-24 14:50 29.81923 106.28621 18467 ft 373 kts 12°
2026-04-24 14:50 29.84415 106.29523 19088 ft 378 kts 12°
2026-04-24 14:51 29.86924 106.30481 19716 ft 385 kts 15°
2026-04-24 14:51 29.89387 106.31797 20399 ft 393 kts 22°
2026-04-24 14:51 29.91719 106.33485 21016 ft 402 kts 28°
2026-04-24 14:51 29.93912 106.35552 21573 ft 414 kts 36°
2026-04-24 14:52 29.95844 106.38011 22106 ft 426 kts 45°
2026-04-24 14:52 29.97506 106.40898 22689 ft 438 kts 53°
2026-04-24 14:52 29.98842 106.44062 23491 ft 442 kts 60°
2026-04-24 14:52 29.99858 106.47423 24171 ft 448 kts 66°
2026-04-24 14:53 30.00648 106.50943 24636 ft 454 kts 69°
2026-04-24 14:53 30.01325 106.54559 24679 ft 460 kts 71°
2026-04-24 14:53 30.01935 106.58176 24687 ft 458 kts 72°
2026-04-24 14:53 30.02516 106.61762 24685 ft 457 kts 72°
2026-04-24 14:54 30.03099 106.65367 24681 ft 457 kts 73°
2026-04-24 14:54 30.03691 106.68966 24695 ft 460 kts 72°
2026-04-24 14:54 30.04298 106.72594 24696 ft 459 kts 72°
2026-04-24 14:54 30.04905 106.76199 24692 ft 457 kts 72°
2026-04-24 14:55 30.05310 106.78589 24697 ft 456 kts 72°
2026-04-24 14:55 30.06122 106.83322 24698 ft 456 kts 72°
2026-04-24 14:55 30.06745 106.86912 24697 ft 456 kts 72°
2026-04-24 14:55 30.07372 106.90524 24690 ft 455 kts 72°
2026-04-24 14:56 30.07998 106.94123 24688 ft 458 kts 72°
2026-04-24 14:56 30.08616 106.97669 24691 ft 455 kts 72°
2026-04-24 14:56 30.09239 107.01252 24686 ft 456 kts 72°
2026-04-24 14:56 30.09864 107.04846 24680 ft 455 kts 72°
2026-04-24 14:57 30.10465 107.08426 24684 ft 456 kts 74°
2026-04-24 14:57 30.10838 107.12068 24682 ft 462 kts 81°
2026-04-24 14:57 30.10721 107.15798 24684 ft 471 kts 92°
2026-04-24 14:57 30.10088 107.19522 24688 ft 477 kts 99°
2026-04-24 14:58 30.09229 107.23194 24682 ft 480 kts 102°
2026-04-24 14:58 30.08254 107.26876 24678 ft 479 kts 103°
2026-04-24 14:58 30.07223 107.30578 24685 ft 482 kts 103°
2026-04-24 14:58 30.06198 107.34210 24682 ft 482 kts 104°
2026-04-24 14:59 30.05162 107.37888 24678 ft 481 kts 104°
2026-04-24 14:59 30.04134 107.41558 24678 ft 481 kts 103°
2026-04-24 14:59 30.03119 107.45216 24680 ft 481 kts 103°
2026-04-24 14:59 30.02106 107.48902 24679 ft 481 kts 103°
2026-04-24 15:00 30.01104 107.52576 24679 ft 483 kts 103°
2026-04-24 15:00 30.00104 107.56253 24674 ft 481 kts 103°
2026-04-24 15:00 29.99101 107.59950 24677 ft 481 kts 103°
2026-04-24 15:00 29.98106 107.63625 24678 ft 482 kts 103°
2026-04-24 15:01 29.97118 107.67271 24680 ft 480 kts 103°
2026-04-24 15:01 29.96123 107.70942 24689 ft 482 kts 103°
2026-04-24 15:01 29.95114 107.74663 24691 ft 481 kts 103°
2026-04-24 15:01 29.94284 107.78360 24691 ft 476 kts 96°
2026-04-24 15:02 29.93921 107.82117 24707 ft 469 kts 84°
2026-04-24 15:02 29.94172 107.85788 24724 ft 460 kts 73°
2026-04-24 15:02 29.94844 107.89393 24734 ft 457 kts 68°
2026-04-24 15:02 29.95665 107.92927 24749 ft 455 kts 66°
2026-04-24 15:03 29.96545 107.96395 24768 ft 454 kts 65°
2026-04-24 15:03 29.97463 107.99887 24780 ft 454 kts 65°
2026-04-24 15:03 29.98381 108.03362 24790 ft 457 kts 65°
2026-04-24 15:03 29.99295 108.06842 24785 ft 455 kts 65°
2026-04-24 15:04 30.00204 108.10344 24786 ft 456 kts 65°
2026-04-24 15:04 30.01104 108.13843 24784 ft 455 kts 65°
2026-04-24 15:04 30.01994 108.17342 24786 ft 456 kts 65°
2026-04-24 15:04 30.02884 108.20860 24774 ft 454 kts 66°
2026-04-24 15:05 30.03772 108.24381 24770 ft 457 kts 65°
2026-04-24 15:05 30.04651 108.27890 24779 ft 455 kts 66°
2026-04-24 15:05 30.05523 108.31383 24780 ft 455 kts 66°
2026-04-24 15:05 30.06401 108.34897 24769 ft 457 kts 66°
2026-04-24 15:06 30.07282 108.38425 24779 ft 457 kts 66°
2026-04-24 15:06 30.08152 108.41918 24788 ft 456 kts 66°
2026-04-24 15:06 30.09035 108.45475 24779 ft 456 kts 66°
2026-04-24 15:06 30.09907 108.48990 24779 ft 455 kts 66°
2026-04-24 15:07 30.10773 108.52486 24777 ft 455 kts 66°
2026-04-24 15:07 30.11644 108.56006 24781 ft 454 kts 65°
2026-04-24 15:07 30.12550 108.59489 24785 ft 455 kts 64°
2026-04-24 15:07 30.13532 108.62968 24773 ft 453 kts 63°
2026-04-24 15:08 30.14551 108.66425 24770 ft 453 kts 63°
2026-04-24 15:08 30.15584 108.69872 24776 ft 453 kts 63°
2026-04-24 15:08 30.16603 108.73271 24775 ft 454 kts 63°
2026-04-24 15:08 30.17634 108.76726 24767 ft 452 kts 63°
2026-04-24 15:09 30.18652 108.80169 24769 ft 452 kts 63°
2026-04-24 15:09 30.19657 108.83580 24778 ft 453 kts 63°
2026-04-24 15:09 30.20672 108.87044 24768 ft 453 kts 63°
2026-04-24 15:09 30.21676 108.90485 24758 ft 455 kts 63°
2026-04-24 15:10 30.22677 108.93953 24780 ft 455 kts 64°
2026-04-24 15:10 30.23609 108.97427 24765 ft 454 kts 66°
2026-04-24 15:10 30.24488 109.00938 24777 ft 455 kts 66°
2026-04-24 15:10 30.25340 109.04461 24771 ft 454 kts 67°
2026-04-24 15:11 30.26181 109.07985 24772 ft 455 kts 67°
2026-04-24 15:11 30.27012 109.11469 24751 ft 455 kts 67°
2026-04-24 15:11 30.27862 109.15012 24770 ft 457 kts 67°
2026-04-24 15:11 30.28714 109.18547 24769 ft 455 kts 67°
2026-04-24 15:12 30.29563 109.22063 24752 ft 455 kts 67°
2026-04-24 15:12 30.31264 109.29082 24757 ft 454 kts 67°
2026-04-24 15:12 30.32120 109.32604 24759 ft 456 kts 67°
2026-04-24 15:13 30.32975 109.36119 24757 ft 455 kts 67°
2026-04-24 15:13 30.33829 109.39618 24752 ft 456 kts 67°
2026-04-24 15:13 30.34691 109.43160 24757 ft 456 kts 67°
2026-04-24 15:13 30.35545 109.46668 24762 ft 455 kts 67°
2026-04-24 15:14 30.36400 109.50195 24752 ft 454 kts 67°
2026-04-24 15:14 30.37248 109.53715 24742 ft 454 kts 67°
2026-04-24 15:14 30.38097 109.57241 24765 ft 456 kts 68°
2026-04-24 15:14 30.38923 109.60738 24754 ft 454 kts 69°
2026-04-24 15:15 30.39621 109.64304 24754 ft 456 kts 72°
2026-04-24 15:15 30.40201 109.67933 24759 ft 459 kts 74°
2026-04-24 15:15 30.40725 109.71601 24763 ft 459 kts 75°
2026-04-24 15:15 30.41219 109.75214 24766 ft 460 kts 75°
2026-04-24 15:16 30.41713 109.78856 24768 ft 460 kts 75°
2026-04-24 15:16 30.42209 109.82484 24760 ft 457 kts 75°
2026-04-24 15:16 30.42713 109.86117 24764 ft 458 kts 75°
2026-04-24 15:16 30.43230 109.89791 24763 ft 458 kts 75°
2026-04-24 15:17 30.43738 109.93380 24758 ft 459 kts 75°
2026-04-24 15:17 30.44264 109.97055 24770 ft 459 kts 75°
2026-04-24 15:17 30.44783 110.00678 24772 ft 457 kts 75°
2026-04-24 15:17 30.45305 110.04311 24770 ft 457 kts 75°
2026-04-24 15:18 30.45826 110.07928 24764 ft 455 kts 75°
2026-04-24 15:18 30.46348 110.11550 24764 ft 455 kts 75°
2026-04-24 15:18 30.46868 110.15162 24763 ft 455 kts 75°
2026-04-24 15:18 30.47390 110.18786 24764 ft 455 kts 75°
2026-04-24 15:19 30.47904 110.22367 24766 ft 454 kts 75°
2026-04-24 15:19 30.48426 110.25994 24758 ft 453 kts 76°
2026-04-24 15:19 30.48946 110.29610 24759 ft 452 kts 75°
2026-04-24 15:19 30.49462 110.33195 24763 ft 454 kts 76°
2026-04-24 15:20 30.49979 110.36803 24778 ft 452 kts 75°
2026-04-24 15:20 30.50489 110.40376 24772 ft 452 kts 76°
2026-04-24 15:20 30.50998 110.43954 24792 ft 452 kts 76°
2026-04-24 15:20 30.51510 110.47564 24787 ft 451 kts 76°
2026-04-24 15:21 30.52018 110.51147 24799 ft 450 kts 76°
2026-04-24 15:21 30.52522 110.54713 24797 ft 450 kts 76°
2026-04-24 15:21 30.53021 110.58250 24797 ft 449 kts 76°
2026-04-24 15:21 30.53526 110.61852 24783 ft 447 kts 76°
2026-04-24 15:22 30.54019 110.65374 24788 ft 449 kts 77°
2026-04-24 15:22 30.54519 110.68958 24792 ft 451 kts 77°
2026-04-24 15:22 30.55022 110.72566 24783 ft 448 kts 77°
2026-04-24 15:23 30.56010 110.79667 24776 ft 450 kts 77°
2026-04-24 15:23 30.56996 110.86797 24744 ft 446 kts 77°
2026-04-24 15:23 30.57326 110.89183 24737 ft 446 kts 77°
2026-04-24 15:24 30.58945 111.00961 24717 ft 447 kts 77°
2026-04-24 15:25 30.59753 111.06886 24705 ft 444 kts 77°
2026-04-24 15:25 30.60875 111.15128 24689 ft 445 kts 77°
2026-04-24 15:26 30.62313 111.25735 24668 ft 444 kts 77°
2026-04-24 15:27 30.63740 111.36346 24660 ft 445 kts 77°
2026-04-24 15:27 30.65147 111.46925 24657 ft 445 kts 78°
2026-04-24 15:28 30.66109 111.61250 24652 ft 446 kts 84°
2026-04-24 15:29 30.66405 111.68433 24656 ft 446 kts 84°
2026-04-24 15:30 30.66896 111.79230 24655 ft 447 kts 84°
2026-04-24 15:31 30.67596 111.93533 24653 ft 444 kts 84°
2026-04-24 15:32 30.68478 112.07801 24648 ft 444 kts 82°
2026-04-24 15:33 30.69490 112.22113 24650 ft 445 kts 82°
2026-04-24 15:33 30.70222 112.32897 24653 ft 444 kts 83°
2026-04-24 15:34 30.70699 112.40094 24654 ft 445 kts 83°
2026-04-24 15:35 30.71401 112.50865 24656 ft 443 kts 83°
2026-04-24 15:35 30.71863 112.58031 24656 ft 445 kts 83°
2026-04-24 15:35 30.72093 112.61628 24657 ft 446 kts 83°
2026-04-24 15:36 30.72320 112.65191 24658 ft 445 kts 84°
2026-04-24 15:36 30.72773 112.72350 24658 ft 443 kts 84°
2026-04-24 15:36 30.72994 112.75872 24661 ft 444 kts 84°
2026-04-24 15:37 30.73219 112.79455 24659 ft 445 kts 84°
2026-04-24 15:37 30.73443 112.83041 24658 ft 443 kts 84°
2026-04-24 15:37 30.73667 112.86625 24666 ft 446 kts 84°
2026-04-24 15:37 30.73888 112.90205 24662 ft 445 kts 84°
2026-04-24 15:38 30.74108 112.93784 24660 ft 446 kts 84°
2026-04-24 15:38 30.74328 112.97364 24661 ft 445 kts 84°
2026-04-24 15:38 30.74550 113.00964 24662 ft 446 kts 84°
2026-04-24 15:38 30.74767 113.04499 24662 ft 445 kts 84°
2026-04-24 15:39 30.74986 113.08101 24666 ft 444 kts 84°
2026-04-24 15:39 30.75201 113.11673 24667 ft 444 kts 84°
2026-04-24 15:39 30.75410 113.15246 24670 ft 444 kts 84°
2026-04-24 15:39 30.75568 113.18848 24663 ft 445 kts 86°
2026-04-24 15:40 30.75672 113.22394 24663 ft 446 kts 87°
2026-04-24 15:40 30.75753 113.25981 24660 ft 444 kts 87°
2026-04-24 15:40 30.75825 113.29578 24659 ft 445 kts 87°
2026-04-24 15:40 30.75897 113.33190 24663 ft 446 kts 87°
2026-04-24 15:41 30.75971 113.36781 24659 ft 445 kts 87°
2026-04-24 15:41 30.76046 113.40362 24657 ft 444 kts 86°
2026-04-24 15:41 30.76125 113.43950 24658 ft 446 kts 86°
2026-04-24 15:41 30.76206 113.47500 24656 ft 444 kts 86°
2026-04-24 15:42 30.76290 113.51102 24656 ft 446 kts 87°
2026-04-24 15:42 30.76374 113.54703 24654 ft 445 kts 87°
2026-04-24 15:42 30.76457 113.58297 24657 ft 445 kts 86°
2026-04-24 15:42 30.76539 113.61894 24655 ft 445 kts 87°
2026-04-24 15:43 30.76620 113.65459 24653 ft 444 kts 87°
2026-04-24 15:43 30.76701 113.69048 24653 ft 446 kts 87°
2026-04-24 15:43 30.76781 113.72639 24652 ft 445 kts 87°
2026-04-24 15:43 30.76860 113.76218 24651 ft 446 kts 87°
2026-04-24 15:44 30.76938 113.79811 24652 ft 446 kts 87°
2026-04-24 15:44 30.77016 113.83442 24650 ft 446 kts 87°
2026-04-24 15:44 30.77092 113.87009 24650 ft 444 kts 87°
2026-04-24 15:44 30.77167 113.90602 24652 ft 445 kts 88°
2026-04-24 15:45 30.77242 113.94204 24649 ft 445 kts 87°
2026-04-24 15:45 30.77316 113.97752 24652 ft 444 kts 88°
2026-04-24 15:45 30.77389 114.01335 24651 ft 445 kts 88°
2026-04-24 15:45 30.77486 114.04967 24653 ft 444 kts 86°
2026-04-24 15:46 30.77621 114.08540 24654 ft 444 kts 86°
2026-04-24 15:46 30.77772 114.12082 24660 ft 446 kts 86°
2026-04-24 15:46 30.77964 114.15681 24654 ft 445 kts 83°
2026-04-24 15:46 30.78406 114.19242 24662 ft 444 kts 77°
2026-04-24 15:47 30.79114 114.22725 24661 ft 441 kts 72°
2026-04-24 15:47 30.80033 114.26115 24655 ft 441 kts 69°
2026-04-24 15:47 30.81077 114.29466 24653 ft 441 kts 67°
2026-04-24 15:47 30.82165 114.32779 24656 ft 441 kts 66°
2026-04-24 15:48 30.83269 114.36101 24653 ft 441 kts 67°
2026-04-24 15:48 30.84375 114.39436 24654 ft 441 kts 67°
2026-04-24 15:48 30.85473 114.42767 24650 ft 442 kts 67°
2026-04-24 15:48 30.86563 114.46101 24650 ft 443 kts 67°
2026-04-24 15:49 30.87656 114.49451 24651 ft 443 kts 67°
2026-04-24 15:49 30.88745 114.52786 24651 ft 443 kts 67°
2026-04-24 15:49 30.89835 114.56123 24649 ft 443 kts 67°
2026-04-24 15:49 30.90921 114.59459 24652 ft 443 kts 67°
2026-04-24 15:50 30.92019 114.62837 24653 ft 444 kts 67°
2026-04-24 15:50 30.93094 114.66147 24650 ft 442 kts 68°
2026-04-24 15:50 30.94185 114.69518 24647 ft 442 kts 68°
2026-04-24 15:50 30.95272 114.72878 24645 ft 444 kts 68°
2026-04-24 15:51 30.96353 114.76224 24651 ft 445 kts 68°
2026-04-24 15:51 30.97441 114.79597 24649 ft 444 kts 68°
2026-04-24 15:51 30.98525 114.82964 24648 ft 444 kts 68°
2026-04-24 15:51 30.99597 114.86296 24648 ft 443 kts 68°
2026-04-24 15:52 31.00681 114.89669 24650 ft 444 kts 68°
2026-04-24 15:52 31.01763 114.93038 24649 ft 444 kts 68°
2026-04-24 15:52 31.02838 114.96392 24649 ft 444 kts 68°
2026-04-24 15:52 31.03911 114.99741 24650 ft 444 kts 68°
2026-04-24 15:53 31.04989 115.03113 24649 ft 443 kts 68°
2026-04-24 15:53 31.06064 115.06476 24657 ft 444 kts 68°
2026-04-24 15:53 31.07141 115.09847 24660 ft 445 kts 68°
2026-04-24 15:53 31.08222 115.13234 24655 ft 445 kts 68°
2026-04-24 15:54 31.09303 115.16629 24660 ft 446 kts 68°
2026-04-24 15:54 31.10372 115.19990 24667 ft 445 kts 68°
2026-04-24 15:54 31.11447 115.23371 24670 ft 446 kts 68°
2026-04-24 15:54 31.12517 115.26753 24672 ft 445 kts 68°
2026-04-24 15:55 31.13596 115.30167 24674 ft 446 kts 68°
2026-04-24 15:55 31.14683 115.33558 24677 ft 446 kts 67°
2026-04-24 15:55 31.15788 115.36974 24677 ft 445 kts 67°
2026-04-24 15:55 31.16880 115.40339 24680 ft 444 kts 67°
2026-04-24 15:56 31.17964 115.43677 24680 ft 444 kts 67°
2026-04-24 15:56 31.19065 115.47070 24683 ft 443 kts 67°
2026-04-24 15:56 31.20165 115.50465 24686 ft 444 kts 67°
2026-04-24 15:56 31.21246 115.53811 24692 ft 444 kts 67°
2026-04-24 15:57 31.22348 115.57224 24700 ft 445 kts 67°
2026-04-24 15:57 31.23429 115.60580 24691 ft 443 kts 67°
2026-04-24 15:57 31.24501 115.63911 24703 ft 443 kts 68°
2026-04-24 15:57 31.25595 115.67317 24707 ft 444 kts 68°
2026-04-24 15:58 31.26685 115.70716 24707 ft 445 kts 68°
2026-04-24 15:58 31.27756 115.74057 24711 ft 443 kts 68°
2026-04-24 15:58 31.28847 115.77467 24708 ft 444 kts 68°
2026-04-24 15:58 31.29924 115.80837 24706 ft 444 kts 68°
2026-04-24 15:59 31.30999 115.84205 24706 ft 445 kts 68°
2026-04-24 15:59 31.32076 115.87585 24698 ft 445 kts 68°
2026-04-24 15:59 31.32796 115.89837 24703 ft 444 kts 68°
2026-04-24 15:59 31.34240 115.94302 24697 ft 445 kts 68°
2026-04-24 16:00 31.35346 115.97688 24696 ft 444 kts 67°
2026-04-24 16:00 31.36443 116.01040 24688 ft 445 kts 67°
2026-04-24 16:00 31.37554 116.04439 24686 ft 444 kts 67°
2026-04-24 16:00 31.38657 116.07816 24684 ft 443 kts 67°
2026-04-24 16:01 31.39743 116.11150 24685 ft 443 kts 67°
2026-04-24 16:01 31.40840 116.14524 24683 ft 443 kts 67°
2026-04-24 16:01 31.41940 116.17912 24682 ft 444 kts 67°
2026-04-24 16:01 31.43036 116.21294 24687 ft 443 kts 67°
2026-04-24 16:02 31.44116 116.24630 24678 ft 444 kts 67°
2026-04-24 16:02 31.45219 116.28040 24678 ft 444 kts 67°
2026-04-24 16:02 31.46297 116.31380 24681 ft 444 kts 67°
2026-04-24 16:02 31.47386 116.34754 24678 ft 444 kts 67°
2026-04-24 16:03 31.48482 116.38157 24678 ft 444 kts 67°
2026-04-24 16:03 31.49566 116.41526 24675 ft 445 kts 67°
2026-04-24 16:03 31.50651 116.44900 24678 ft 444 kts 67°
2026-04-24 16:03 31.51741 116.48298 24674 ft 444 kts 67°
2026-04-24 16:04 31.52827 116.51683 24673 ft 444 kts 67°
2026-04-24 16:04 31.53910 116.55065 24676 ft 444 kts 67°
2026-04-24 16:04 31.54985 116.58420 24678 ft 445 kts 67°
2026-04-24 16:04 31.56076 116.61833 24672 ft 444 kts 67°
2026-04-24 16:05 31.58246 116.68626 24673 ft 445 kts 68°
2026-04-24 16:05 31.59312 116.71971 24677 ft 444 kts 68°
2026-04-24 16:06 31.61473 116.78760 24671 ft 445 kts 68°
2026-04-24 16:06 31.62551 116.82153 24672 ft 444 kts 68°
2026-04-24 16:06 31.64712 116.88967 24671 ft 445 kts 68°
2026-04-24 16:07 31.65781 116.92344 24671 ft 445 kts 68°
2026-04-24 16:07 31.66860 116.95753 24676 ft 445 kts 68°
2026-04-24 16:07 31.69002 117.02538 24668 ft 445 kts 68°
2026-04-24 16:08 31.70069 117.05953 24675 ft 446 kts 68°
2026-04-24 16:08 31.72181 117.12781 24672 ft 446 kts 68°
2026-04-24 16:09 31.74240 117.19616 24671 ft 447 kts 71°
2026-04-24 16:09 31.74939 117.23151 24672 ft 440 kts 81°
2026-04-24 16:09 31.75126 117.26659 24663 ft 430 kts 91°
2026-04-24 16:09 31.74846 117.30127 24426 ft 421 kts 99°
2026-04-24 16:10 31.71812 117.39603 23079 ft 421 kts 123°
2026-04-24 16:11 31.68543 117.45216 21986 ft 415 kts 127°
2026-04-24 16:11 31.66842 117.47943 21433 ft 412 kts 128°
2026-04-24 16:11 31.65134 117.50663 20884 ft 409 kts 127°
2026-04-24 16:12 31.62098 117.56279 19767 ft 405 kts 112°
2026-04-24 16:12 31.61395 117.59447 19192 ft 403 kts 96°
2026-04-24 16:12 31.61558 117.65935 18081 ft 395 kts 83°
2026-04-24 16:13 31.61875 117.69136 17537 ft 392 kts 82°
2026-04-24 16:13 31.62558 117.75406 16423 ft 386 kts 82°
2026-04-24 16:14 31.63211 117.81634 15314 ft 380 kts 83°
2026-04-24 16:14 31.63516 117.84674 14772 ft 377 kts 83°
2026-04-24 16:14 31.64110 117.90765 13650 ft 371 kts 83°
2026-04-24 16:15 31.64300 117.92738 13286 ft 370 kts 83°
2026-04-24 16:15 31.64961 117.99604 12390 ft 351 kts 83°
2026-04-24 16:16 31.65482 118.05066 12058 ft 327 kts 83°
2026-04-24 16:16 31.65733 118.07695 11636 ft 324 kts 83°
2026-04-24 16:17 31.66459 118.15297 10708 ft 299 kts 82°
2026-04-24 16:17 31.66722 118.19998 10019 ft 281 kts 88°
2026-04-24 16:18 31.66717 118.24548 9363 ft 275 kts 89°
2026-04-24 16:18 31.66713 118.28999 8654 ft 272 kts 89°
2026-04-24 16:18 31.66718 118.31183 8310 ft 270 kts 89°
2026-04-24 16:19 31.66732 118.35549 7652 ft 265 kts 89°
2026-04-24 16:19 31.66738 118.37701 7487 ft 256 kts 89°
2026-04-24 16:20 31.66692 118.41693 7276 ft 236 kts 96°
2026-04-24 16:20 31.65559 118.45225 6783 ft 232 kts 115°
2026-04-24 16:20 31.64827 118.46909 6517 ft 230 kts 115°
2026-04-24 16:21 31.63460 118.50303 5952 ft 228 kts 113°
2026-04-24 16:21 31.62809 118.51968 5657 ft 228 kts 113°
2026-04-24 16:21 31.62150 118.53649 5471 ft 220 kts 113°
2026-04-24 16:22 31.61531 118.55227 5375 ft 209 kts 113°
2026-04-24 16:22 31.60378 118.58172 5130 ft 190 kts 111°
2026-04-24 16:22 31.60042 118.59644 4951 ft 191 kts 90°
2026-04-24 16:23 31.60356 118.61162 4754 ft 191 kts 66°
2026-04-24 16:23 31.60891 118.62558 4514 ft 188 kts 66°
2026-04-24 16:23 31.61389 118.63978 4200 ft 188 kts 69°
2026-04-24 16:24 31.62272 118.66852 3631 ft 185 kts 73°
2026-04-24 16:24 31.62662 118.68272 3378 ft 184 kts 72°
2026-04-24 16:24 31.63178 118.69627 3128 ft 181 kts 62°
2026-04-24 16:24 31.63836 118.70878 2890 ft 177 kts 59°
2026-04-24 16:25 31.64495 118.72079 2627 ft 174 kts 59°
2026-04-24 16:25 31.65130 118.73261 2409 ft 164 kts 60°
2026-04-24 16:25 31.65715 118.74348 2142 ft 153 kts 60°
2026-04-24 16:26 31.66804 118.76372 1773 ft 147 kts 60°
2026-04-24 16:26 31.67353 118.77393 1565 ft 146 kts 60°
2026-04-24 16:26 31.68441 118.79416 1157 ft 147 kts 59°
2026-04-24 16:27 31.68995 118.80434 961 ft 148 kts 59°
2026-04-24 16:27 31.69543 118.81450 737 ft 148 kts 59°
2026-04-24 16:27 31.70100 118.82477 547 ft 148 kts 58°
2026-04-24 16:27 31.70658 118.83507 361 ft 150 kts 59°
2026-04-24 16:28 31.71207 118.84541 150 ft 149 kts 58°
2026-04-24 16:28 31.71740 118.85537 56 ft 130 kts 57°
2026-04-24 16:28 31.72238 118.86468 56 ft 22 kts 58°
2026-04-24 16:29 31.72320 118.86588 56 ft 18 kts 41°
2026-04-24 16:29 31.72420 118.86677 56 ft 15 kts 30°
2026-04-24 16:29 31.72583 118.86726 56 ft 11 kts 328°
2026-04-24 16:30 31.72727 118.86620 56 ft 14 kts 328°
2026-04-24 16:30 31.72817 118.86554 56 ft 16 kts 328°
2026-04-24 16:30 31.72922 118.86478 56 ft 18 kts 328°
2026-04-24 16:31 31.73031 118.86398 56 ft 18 kts 328°
2026-04-24 16:31 31.73137 118.86321 56 ft 17 kts 328°
2026-04-24 16:31 31.73240 118.86246 56 ft 17 kts 328°
2026-04-24 16:31 31.73343 118.86169 56 ft 17 kts 328°
2026-04-24 16:32 31.73443 118.86097 56 ft 16 kts 328°
2026-04-24 16:32 31.73542 118.86025 56 ft 16 kts 328°
2026-04-24 16:32 31.73621 118.85967 56 ft 9 kts 328°
2026-04-24 16:32 31.73665 118.85957 56 ft 6 kts 43°
2026-04-24 16:33 31.73667 118.86007 56 ft 6 kts 100°
2026-04-24 16:33 31.73660 118.86049 56 ft 3 kts 100°
2026-04-24 16:33 31.73658 118.86062 56 ft 0 kts 100°